Location: Home
(42.5358°N, 72.7383°W)
Time: 14:26:56
(UTC-05:00)

deb Explorer IX - Pass Details

Date: 01 December 2021
Orbit: 544 x 1082 km, 38.8° (Epoch: 16 January)

Event Time Altitude Azimuth Distance (km) Brightness Sun altitude
Rises 16:38:29 0° 265° (W) 2,717 ? -4.1°
Reaches altitude 10° 16:41:59 10° 234° (SW) 1,870 ? -4.6°
Maximum altitude 16:43:39 12° 210° (SSW) 1,771 ? -4.9°
Drops below altitude 10° 16:45:21 10° 187° (S) 1,941 ? -5.2°
Sets 16:49:10 0° 157° (SSE) 2,956 ? -5.8°
